Location: Brede
(50.9167°N, 0.6000°E)
Time: 02:41:25
(UTC+00:00)

S-56A Canister/Altair - Visible Passes

Search period start: 04 December 2021 00:00
Search period end: 14 December 2021 00:00
Orbit: 633 x 2500 km, 38.9° (Epoch: 03 December)

Date Brightness Start Highest point End Pass type
(mag) Time Alt. Az. Time Alt. Az. Time Alt. Az.
09 Dec 11.2 19:54:57 10° S 19:57:00 13° SSE 19:57:00 13° SSE visible
10 Dec 11.1 19:22:27 10° S 19:26:23 14° SSE 19:26:23 14° SSE visible
10 Dec 11.3 21:22:19 10° SSW 21:23:50 13° SSW 21:23:50 13° SSW visible
11 Dec 11.0 18:50:12 10° SSE 18:55:46 14° SE 18:55:46 14° SE visible
11 Dec 11.0 20:49:04 10° SSW 20:53:12 19° SSW 20:53:12 19° SSW visible
12 Dec 11.1 18:18:22 10° SSE 18:23:02 12° SE 18:25:07 12° SE visible
12 Dec 10.8 20:15:52 10° SSW 20:22:34 24° S 20:22:34 24° S visible
12 Dec 11.5 22:19:42 10° WSW 22:20:01 11° WSW 22:20:01 11° WSW visible
13 Dec 11.2 17:47:22 10° SE 17:50:05 11° SE 17:52:42 10° ESE visible
13 Dec 10.6 19:42:46 10° SSW 19:51:53 27° SSE 19:51:53 27° SSE visible
13 Dec 11.2 21:46:12 10° SW 21:49:20 18° SW 21:49:20 18° SW visible
